Meteógrafos Informações Meteorológicas em tempo real
Aeroporto Internacional do Galeão
15-12-2019 21:56

Temperatura atual: 27 graus 80 F    Umidade relativa: 69 %
Velocidade do vento: 10 nós 18 Km/h    Direção: 090 graus E
Ajuste do altímetro ..: 1013 HPA
Visibilidade: Ótima    Tempo presente: Céu Limpo

Observação
Data Hora BRTTempo°CUmidadePressãoVentoVisib.
15/12 - 21:56   Céu Limpo 27° 69% 1013 Leste/18 km/h OK
15/12 - 20:56   Céu Limpo 28° 65% 1013 Leste/16 km/h OK
15/12 - 19:56   Céu Limpo 30° 62% 1012 Leste/18 km/h OK
15/12 - 18:56   Céu Limpo 31° 58% 1012 Sudeste/14 km/h OK
15/12 - 17:55   Céu Limpo 32° 52% 1012 Sudeste/16 km/h OK
15/12 - 16:56   Céu Limpo 32° 52% 1012 Sudeste/16 km/h OK
15/12 - 15:56   Não Disponível 32° 52% 1013 Sudeste/18 km/h OK
15/12 - 14:56   Não Disponível 33° 49% 1013 Sudeste/10 km/h OK
15/12 - 13:56   Não Disponível 33° 49% 1014 /7 km/h OK
15/12 - 12:56   Não Disponível 32° 52% 1015 /5 km/h OK
15/12 - 11:56   Não Disponível 31° 52% 1016 Leste/14 km/h 9999
15/12 - 10:56   Não Disponível 30° 62% 1016 Este-nordeste/10 km/h 9999
15/12 - 09:56   Não Disponível 28° 70% 1017 Leste/7 km/h OK
15/12 - 08:56   Poucas nuvens esparsas 26° 78% 1017 Norte-nordeste/10 km/h OK
15/12 - 07:56   Parcialmente Nublado 25° 83% 1017 Este-nordeste/12 km/h 9000
15/12 - 06:56   Parcialmente Nublado 25° 83% 1017 Este-nordeste/12 km/h 9000
15/12 - 05:56   Parcialmente Nublado 25° 83% 1016 Norte-nordeste/3 km/h 9000
15/12 - 04:56   Céu Encoberto 24° 83% 1017 Sul/5 km/h 9000
15/12 - 03:56   Céu Encoberto 24° 83% 1017 Sul-sudeste/7 km/h 9000
15/12 - 02:56   Céu Encoberto 24° 83% 1017 Sudeste/7 km/h OK
15/12 - 01:56   Céu Encoberto ND° ND% ND Sul/7 km/h OK
15/12 - 00:56   Céu Encoberto 25° 83% 1017 Sul/9 km/h OK
14/12 - 23:56   Céu Encoberto 25° 83% 1017 Sudeste/3 km/h OK
14/12 - 22:56   Poucas nuvens esparsas 25° 83% 1018 Sul-sudeste/7 km/h 9000

Termo de Uso  |   Links Úteis  |   Imprensa  |  Anuncie  |  Fale Conosco  |  Versão Celular  |   Política de Privacidade

Apolo11.com - Todos os direitos reservados - 2000 - 2019

"Amargas são as lágrimas derramadas, mas ainda mais amargas são as que não se derramam" - Provérbio irlandês